Location: ??????????
(54.8537°N, 38.8755°E)
Time: 00:03:23
(UTC+00:00)

S-56A Canister/Altair - Visible Passes

Search period start: 12 September 2024 00:00
Search period end: 22 September 2024 00:00
Orbit: 637 x 2487 km, 38.9° (Epoch: 11 September)

Date Brightness Start Highest point End Pass type
(mag) Time Alt. Az. Time Alt. Az. Time Alt. Az.
12 Sep 9.7 17:14:39 10° SSW 17:19:53 22° SSE 17:23:29 17° SE visible
12 Sep 9.8 19:15:47 10° SW 19:20:47 28° SSW 19:20:47 28° SSW visible
13 Sep 9.8 16:41:37 10° SSW 16:46:09 19° SSE 16:51:05 12° ESE visible
13 Sep 9.6 18:42:21 10° SW 18:48:23 28° S 18:48:23 28° S visible
13 Sep 10.6 20:45:01 10° WSW 20:45:41 12° WSW 20:45:41 12° WSW visible
14 Sep 9.8 16:08:45 10° S 16:12:28 16° SSE 16:16:57 10° ESE visible
14 Sep 9.6 18:08:58 10° SW 18:14:51 27° S 18:15:58 26° SSE visible
14 Sep 10.4 20:11:21 10° WSW 20:13:16 16° SW 20:13:16 16° SW visible
15 Sep 9.6 17:35:39 10° SW 17:41:00 25° S 17:43:33 21° SE visible
15 Sep 10.1 19:37:45 10° WSW 19:40:50 20° SW 19:40:50 20° SW visible
16 Sep 9.6 17:02:23 10° SW 17:07:13 22° SSE 17:11:08 16° SE visible
16 Sep 9.9 19:04:13 10° WSW 19:08:26 23° SSW 19:08:26 23° SSW visible
17 Sep 9.6 16:29:11 10° SSW 16:33:29 20° SSE 16:38:43 10° ESE visible
17 Sep 9.7 18:30:44 10° SW 18:36:00 23° S 18:36:00 23° S visible
18 Sep 9.7 17:57:18 10° SW 18:02:19 22° S 18:03:35 22° S visible
18 Sep 10.6 20:00:40 10° WSW 20:00:54 11° SW 20:00:54 11° SW visible
19 Sep 9.6 17:23:55 10° SW 17:28:30 21° S 17:31:12 18° SSE visible
19 Sep 10.3 19:26:58 10° SW 19:28:30 13° SW 19:28:30 13° SW visible
20 Sep 9.6 16:50:34 10° SW 16:54:43 20° S 16:58:50 13° SE visible
20 Sep 10.1 18:53:21 10° SW 18:56:08 15° SSW 18:56:08 15° SSW visible
21 Sep 9.6 16:17:15 10° SW 16:20:59 18° S 16:25:34 10° SE visible
21 Sep 10.0 18:19:47 10° SW 18:23:40 16° SSW 18:23:46 16° SSW visible
